Volver al catálogo

STARLINK-36496

ActivoComunicacionesVLEO
NORAD 67329·PAYLOAD·🇺🇸 United States

Lanzado Jan 4, 2026 desde Cape Canaveral Space Force Station

Loading…

Próximos Pases (próximas 24 horas)

TLE

ActualizadoSource: CelesTrak SupGP

Época: Sep 14, 2026, 23:18 UTC

1 67329C 26002AA  26257.97131944 -.00008966  00000+0 -32475-3 0  2578
2 67329  43.0038 336.2817 0001984 266.7297 224.9864 15.27583200    17

Sigue STARLINK-36496 en tiempo real con AllMySat

Download on the App Store